EW6614 Weather Reports


Display with metric or nautical units.
time (UTC)temp
F
wind
direction
speed
MPH
gust
MPH
rain 1hr
in
rain 24hr
in
rain mn
in
humidity
%
barometer
mb
20260831024612 82 360 0.0 2.0 0.00 0.00 0.00 60 1013.4
20260831024608 82 0 0.0 2.0 0.00 0.00 0.00 49 1014.2
20260831023101 81 360 1.0 4.0 0.00 0.00 0.00 49 1013.9
20260831023053 81 360 1.0 3.0 0.00 0.00 0.00 61 1013.1
20260831021602 81 0 0.0 0.0 0.00 0.00 0.00 50 1013.6
20260831021553 81 360 0.0 0.0 0.00 0.00 0.00 62 1012.9
20260831020107 81 360 0.0 0.0 0.00 0.00 0.00 60 1012.6
20260831020100 81 0 0.0 0.0 0.00 0.00 0.00 48 1013.3
20260831014602 83 360 0.0 0.0 0.00 0.00 0.00 59 1012.4
20260831013101 85 0 0.0 0.0 0.00 0.00 0.00 44 1013.0
20260831013052 85 360 0.0 0.0 0.00 0.00 0.00 55 1012.3
20260831011610 87 0 0.0 0.0 0.00 0.00 0.00 39 1012.9
20260831011559 87 360 0.0 0.0 0.00 0.00 0.00 51 1012.1
20260831010107 89 0 0.0 3.0 0.00 0.00 0.00 35 1012.7
20260831010051 89 360 0.0 2.0 0.00 0.00 0.00 47 1011.9
20260831004606 92 0 0.0 2.0 0.00 0.00 0.00 30 1012.6
20260831004550 92 112 0.0 2.0 0.00 0.00 0.00 42 1011.8
20260831003100 94 0 1.0 3.0 0.00 0.00 0.00 26 1012.5
20260831003050 94 112 0.0 3.0 0.00 0.00 0.00 38 1011.9
20260831001606 95 122 3.0 11.0 0.00 0.00 0.00 25 1012.6
20260831001554 95 122 3.0 11.0 0.00 0.00 0.00 37 1011.9
20260831000106 96 123 2.0 8.0 0.00 0.00 0.00 25 1012.7
20260831000050 96 123 2.0 8.0 0.00 0.00 0.00 36 1012.0
20260830234607 97 101 2.0 4.0 0.00 0.00 0.00 38 1011.9
20260830233106 97 128 2.0 8.0 0.00 0.00 0.00 26 1012.5
20260830233048 97 128 1.0 8.0 0.00 0.00 0.00 37 1011.9
20260830231605 98 135 2.0 6.0 0.00 0.00 0.00 25 1012.6
20260830231548 98 135 2.0 7.0 0.00 0.00 0.00 37 1011.8
20260830230103 98 122 2.0 7.0 0.00 0.00 0.00 26 1012.7
20260830230046 98 122 3.0 7.0 0.00 0.00 0.00 37 1012.0
20260830224609 99 163 2.0 8.0 0.00 0.00 0.00 25 1012.7
20260830224549 99 178 3.0 8.0 0.00 0.00 0.00 37 1012.0
20260830223109 99 159 3.0 8.0 0.00 0.00 0.00 25 1012.6
20260830223045 99 159 2.0 8.0 0.00 0.00 0.00 37 1011.9
20260830221624 99 171 3.0 6.0 0.00 0.00 0.00 24 1012.5
20260830221544 99 171 2.0 4.0 0.00 0.00 0.00 36 1011.9
20260830220104 99 122 2.0 7.0 0.00 0.00 0.00 26 1012.6
20260830220043 99 122 2.0 7.0 0.00 0.00 0.00 37 1011.9
20260830214606 99 291 2.0 10.0 0.00 0.00 0.00 26 1012.7
20260830214542 99 291 3.0 9.0 0.00 0.00 0.00 38 1012.0
20260830213106 99 166 3.0 9.0 0.00 0.00 0.00 27 1012.9
20260830213041 99 165 2.0 7.0 0.00 0.00 0.00 38 1012.1
20260830211608 99 98 3.0 7.0 0.00 0.00 0.00 26 1013.2
20260830211538 99 99 3.0 6.0 0.00 0.00 0.00 37 1012.4
20260830210104 100 65 1.0 9.0 0.00 0.00 0.00 26 1013.4
20260830210034 100 63 2.0 6.0 0.00 0.00 0.00 37 1012.7
20260830204607 99 0 4.0 11.0 0.00 0.00 0.00 25 1013.8
20260830204529 99 140 2.0 11.0 0.00 0.00 0.00 37 1013.0
20260830203103 99 150 2.0 8.0 0.00 0.00 0.00 25 1014.0
20260830203027 99 277 1.0 7.0 0.00 0.00 0.00 36 1013.1
20260830201635 99 197 2.0 8.0 0.00 0.00 0.00 25 1014.0
20260830201559 99 197 1.0 7.0 0.00 0.00 0.00 37 1013.2
20260830200106 99 125 4.0 11.0 0.00 0.00 0.00 28 1014.1
20260830200022 99 138 4.0 9.0 0.00 0.00 0.00 39 1013.3
20260830194614 99 295 3.0 7.0 0.00 0.00 0.00 26 1014.3
20260830194522 99 294 2.0 7.0 0.00 0.00 0.00 37 1013.6
20260830193111 98 237 3.0 11.0 0.00 0.00 0.00 27 1014.4
20260830193017 98 237 3.0 10.0 0.00 0.00 0.00 39 1013.8
20260830191606 97 80 5.0 14.0 0.00 0.00 0.00 28 1014.7
20260830191512 97 98 5.0 12.0 0.00 0.00 0.00 40 1014.1
20260830190106 97 254 2.0 9.0 0.00 0.00 0.00 30 1015.2
20260830190013 97 255 2.0 9.0 0.00 0.00 0.00 41 1014.5
20260830184600 96 155 7.0 13.0 0.00 0.00 0.00 33 1015.4
20260830184507 96 181 6.0 13.0 0.00 0.00 0.00 44 1014.8
20260830183105 96 181 2.0 10.0 0.00 0.00 0.00 30 1015.4
20260830183005 96 181 2.0 10.0 0.00 0.00 0.00 42 1014.9
20260830181604 96 163 5.0 11.0 0.00 0.00 0.00 33 1015.5
20260830181507 96 119 5.0 10.0 0.00 0.00 0.00 45 1015.1
20260830180110 95 148 5.0 11.0 0.00 0.00 0.00 48 1015.3
20260830180107 95 165 4.0 11.0 0.00 0.00 0.00 36 1015.8
20260830174604 95 172 6.0 11.0 0.00 0.00 0.00 38 1016.0
20260830174602 95 163 7.0 11.0 0.00 0.00 0.00 50 1015.4
20260830173125 94 135 4.0 10.0 0.00 0.00 0.00 40 1016.3
20260830173102 94 134 6.0 12.0 0.00 0.00 0.00 51 1015.7
20260830171608 93 154 5.0 11.0 0.00 0.00 0.00 41 1016.4
20260830171552 93 136 6.0 11.0 0.00 0.00 0.00 53 1015.8
20260830170108 92 175 2.0 12.0 0.00 0.00 0.00 43 1016.5
20260830170047 92 175 2.0 12.0 0.00 0.00 0.00 55 1016.1
20260830164613 92 196 3.0 12.0 0.00 0.00 0.00 44 1016.5
20260830164549 92 196 4.0 11.0 0.00 0.00 0.00 55 1016.2
20260830163116 92 161 4.0 10.0 0.00 0.00 0.00 44 1016.6
20260830163045 92 161 5.0 9.0 0.00 0.00 0.00 57 1016.3
20260830161610 90 181 3.0 8.0 0.00 0.00 0.00 46 1016.6
20260830161541 90 181 4.0 8.0 0.00 0.00 0.00 58 1016.3
20260830160108 89 163 4.0 11.0 0.00 0.00 0.00 49 1016.7
20260830160037 89 164 4.0 10.0 0.00 0.00 0.00 60 1016.4
20260830154638 89 265 3.0 5.0 0.00 0.00 0.00 62 1016.4
20260830154611 88 305 1.0 8.0 0.00 0.00 0.00 50 1016.6
20260830153112 88 0 2.0 6.0 0.00 0.00 0.00 52 1016.5
20260830153038 88 195 1.0 6.0 0.00 0.00 0.00 63 1016.2
20260830151604 87 183 2.0 7.0 0.00 0.00 0.00 54 1016.5
20260830151530 87 199 3.0 7.0 0.00 0.00 0.00 66 1016.4
20260830150105 85 0 2.0 8.0 0.00 0.00 0.00 56 1016.6
20260830150025 85 360 2.0 5.0 0.00 0.00 0.00 68 1016.4
20260830144600 84 327 3.0 8.0 0.00 0.00 0.00 56 1016.7
20260830144535 84 360 2.0 8.0 0.00 0.00 0.00 68 1016.6
20260830143109 83 291 1.0 6.0 0.00 0.00 0.00 56 1016.8
20260830143021 83 355 1.0 4.0 0.00 0.00 0.00 67 1016.7
20260830141601 83 344 1.0 4.0 0.00 0.00 0.00 55 1016.8
20260830141519 82 344 1.0 4.0 0.00 0.00 0.00 66 1016.7
20260830140109 81 0 1.0 4.0 0.00 0.00 0.00 55 1016.9
20260830140017 81 244 1.0 4.0 0.00 0.00 0.00 66 1016.7
20260830134604 80 0 0.0 0.0 0.00 0.00 0.00 53 1017.0
20260830134517 80 144 0.0 0.0 0.00 0.00 0.00 64 1016.9
20260830133058 79 0 0.0 0.0 0.00 0.00 0.00 53 1016.8
20260830133034 79 144 0.0 0.0 0.00 0.00 0.00 64 1016.8
20260830131609 77 0 0.0 0.0 0.00 0.00 0.00 54 1016.6
20260830131514 77 144 0.0 0.0 0.00 0.00 0.00 65 1016.6
20260830130107 75 0 0.0 0.0 0.00 0.00 0.00 55 1016.4
20260830130012 75 144 0.0 0.0 0.00 0.00 0.00 67 1016.2
20260830124602 74 0 0.0 0.0 0.00 0.00 0.00 56 1016.3
20260830124513 74 360 0.0 0.0 0.00 0.00 0.00 67 1016.1
20260830123100 73 0 0.0 0.0 0.00 0.00 0.00 57 1016.3
20260830123009 73 360 0.0 0.0 0.00 0.00 0.00 68 1016.0
20260830121609 73 0 0.0 0.0 0.00 0.00 0.00 57 1016.1
20260830121508 73 360 0.0 0.0 0.00 0.00 0.00 69 1015.9
20260830120107 73 0 0.0 0.0 0.00 0.00 0.00 57 1016.0
20260830120007 73 360 0.0 0.0 0.00 0.00 0.00 68 1015.8
20260830114606 73 0 0.0 0.0 0.00 0.00 0.00 57 1015.9
20260830114505 73 360 0.0 0.0 0.00 0.00 0.00 69 1015.6
20260830113103 73 0 0.0 0.0 0.00 0.00 0.00 58 1015.9
20260830113005 73 360 0.0 0.0 0.00 0.00 0.00 69 1015.5
20260830111605 73 0 0.0 0.0 0.00 0.00 0.00 57 1015.9
20260830111502 73 360 0.0 0.0 0.00 0.00 0.00 69 1015.5
20260830110111 74 360 0.0 0.0 0.00 0.00 0.00 69 1015.5
20260830104604 74 0 0.0 0.0 0.00 0.00 0.00 58 1015.8
20260830104557 74 360 0.0 0.0 0.00 0.00 0.00 70 1015.3
20260830103106 74 0 0.0 0.0 0.00 0.00 0.00 59 1015.7
20260830103057 74 360 0.0 0.0 0.00 0.00 0.00 70 1015.2
20260830101610 74 0 0.0 0.0 0.00 0.00 0.00 59 1015.7
20260830101556 74 360 0.0 0.0 0.00 0.00 0.00 71 1015.2
20260830100124 75 0 0.0 0.0 0.00 0.00 0.00 59 1015.5
20260830100054 75 360 0.0 0.0 0.00 0.00 0.00 70 1015.1
20260830094610 75 360 0.0 0.0 0.00 0.00 0.00 69 1015.0
20260830094604 75 0 0.0 0.0 0.00 0.00 0.00 58 1015.4
20260830093105 75 0 0.0 0.0 0.00 0.00 0.00 59 1015.5
20260830093055 75 360 0.0 0.0 0.00 0.00 0.00 70 1015.0
20260830091607 75 0 0.0 0.0 0.00 0.00 0.00 60 1015.5
20260830091552 75 360 0.0 0.0 0.00 0.00 0.00 72 1015.0
20260830090106 75 0 0.0 0.0 0.00 0.00 0.00 62 1015.5
20260830090051 75 360 0.0 0.0 0.00 0.00 0.00 74 1015.0
20260830084610 75 0 0.0 0.0 0.00 0.00 0.00 62 1015.4
20260830084549 75 360 0.0 0.0 0.00 0.00 0.00 73 1014.9
20260830083107 76 0 0.0 0.0 0.00 0.00 0.00 62 1015.4
20260830083059 76 360 0.0 0.0 0.00 0.00 0.00 74 1014.9
20260830081603 76 0 0.0 0.0 0.00 0.00 0.00 61 1015.3
20260830081550 76 360 0.0 0.0 0.00 0.00 0.00 73 1014.9
20260830080106 76 0 0.0 0.0 0.00 0.00 0.00 61 1015.2
20260830080053 76 360 0.0 0.0 0.00 0.00 0.00 72 1014.8
20260830074616 77 0 0.0 0.0 0.00 0.00 0.00 62 1015.3
20260830074548 77 360 0.0 0.0 0.00 0.00 0.00 73 1014.9
20260830073106 77 0 0.0 0.0 0.00 0.00 0.00 62 1015.4
20260830073041 77 360 0.0 0.0 0.00 0.00 0.00 73 1015.0
20260830071604 77 0 0.0 0.0 0.00 0.00 0.00 61 1015.6
20260830071542 77 360 0.0 0.0 0.00 0.00 0.00 73 1015.1
20260830070107 78 0 0.0 0.0 0.00 0.00 0.00 60 1015.6
20260830070042 78 360 0.0 0.0 0.00 0.00 0.00 71 1015.1
20260830064559 78 0 0.0 0.0 0.00 0.00 0.00 60 1015.6
20260830064544 78 360 0.0 0.0 0.00 0.00 0.00 71 1015.2
20260830063112 79 0 0.0 1.0 0.00 0.00 0.00 59 1015.6
20260830063035 79 360 0.0 1.0 0.00 0.00 0.00 70 1015.2
20260830061601 80 0 0.0 0.0 0.00 0.00 0.00 58 1015.7
20260830061531 80 360 0.0 0.0 0.00 0.00 0.00 69 1015.2
20260830060105 80 0 0.0 0.0 0.00 0.00 0.00 55 1015.5
20260830060028 80 360 0.0 0.0 0.00 0.00 0.00 67 1015.0
20260830054606 81 0 0.0 0.0 0.00 0.00 0.00 55 1015.5
20260830054538 81 360 0.0 0.0 0.00 0.00 0.00 67 1015.0
20260830053104 82 0 0.0 1.0 0.00 0.00 0.00 54 1015.5
20260830053024 82 145 0.0 1.0 0.00 0.00 0.00 66 1015.0
20260830051602 82 144 0.0 3.0 0.00 0.00 0.00 54 1015.4
20260830051521 82 148 0.0 3.0 0.00 0.00 0.00 66 1014.8
20260830050101 83 144 1.0 3.0 0.00 0.00 0.00 53 1015.4
20260830050018 83 144 1.0 3.0 0.00 0.00 0.00 65 1014.8
20260830044606 84 142 1.0 3.0 0.00 0.00 0.00 52 1015.6
20260830044524 84 142 1.0 3.0 0.00 0.00 0.00 63 1015.0
20260830043117 84 142 1.0 4.0 0.00 0.00 0.00 51 1015.4
20260830043019 84 142 1.0 3.0 0.00 0.00 0.00 62 1014.9
20260830041611 85 170 1.0 5.0 0.00 0.00 0.00 50 1015.4
20260830041524 85 121 1.0 4.0 0.00 0.00 0.00 62 1014.8
20260830040110 85 165 2.0 5.0 0.00 0.00 0.00 50 1015.3
20260830040019 85 165 2.0 5.0 0.00 0.00 0.00 61 1014.8
20260830034603 85 138 1.0 6.0 0.00 0.00 0.00 49 1015.3
20260830034516 85 138 1.0 3.0 0.00 0.00 0.00 60 1014.8
20260830033105 86 138 2.0 7.0 0.00 0.00 0.00 49 1015.3
20260830033015 86 138 2.0 7.0 0.00 0.00 0.00 60 1014.7
20260830031603 86 159 3.0 7.0 0.00 0.00 0.00 49 1015.3
20260830031515 86 141 3.0 7.0 0.00 0.00 0.00 60 1014.7
20260830030105 85 148 2.0 6.0 0.00 0.00 0.00 49 1015.2
20260830030025 85 165 2.0 5.0 0.00 0.00 0.00 60 1014.5